Regional Weather Roundup
Issued by NWS Little Rock, AR

Home | Current Version | Previous Version | Text Only | Print | Product List | Glossary On
Versions: 1 2 3 4 5 6 7 8 9 10 11 12 13 14 15 16 17 18 19 20 21 22 23 24 25 26 27 28 29 30 31 32 33 34 35 36 37 38 39 40 41 42 43 44 45 46 47 48 49 50
000
ASUS44 KLZK 280605
RWRLZK

WEATHER ROUNDUP FOR ARKANSAS
NATIONAL WEATHER SERVICE LITTLE ROCK AR
1200 AM CST WED JAN 28 2015

NOTE: "FAIR" INDICATES FEW OR NO CLOUDS BELOW 12,000 FEET WITH NO
SIGNIFICANT WEATHER AND/OR OBSTRUCTIONS TO VISIBILITY.

ARZ001-003-010-029-280700-
NORTHWEST ARKANSAS

CITY           SKY/WX    TMP DP  RH WIND       PRES   REMARKS
FAYETTEVILLE   CLEAR     35  29  78 CALM      30.11S
6HR MIN TEMP:  33; 6HR MAX TEMP:  52;

FORT SMITH     CLEAR     46  33  60 NE7       30.12R
6HR MIN TEMP:  43; 6HR MAX TEMP:  62;

HARRISON       CLEAR     44  30  57 SE8       30.14R
6HR MIN TEMP:  43; 6HR MAX TEMP:  56;

BENTONVILLE    CLEAR     45  27  49 SE6       30.10S
6HR MIN TEMP:  45; 6HR MAX TEMP:  57;

ROGERS         CLEAR     46  30  53 E8        30.10S
6HR MIN TEMP:  45; 6HR MAX TEMP:  59;

SILOAM SPGS    CLEAR     46  28  49 SE6       30.10S
HIGHFILL       CLEAR     45  29  53 SE3       30.09S
6HR MIN TEMP:  44; 6HR MAX TEMP:  58;

$$

ARZ004-005-016-280700-
NORTH CENTRAL ARKANSAS

CITY           SKY/WX    TMP DP  RH WIND       PRES   REMARKS
BATESVILLE     CLEAR     43  34  70 E8        30.22R
6HR MIN TEMP:  41; 6HR MAX TEMP:  52;

FLIPPIN        CLEAR     43  28  56 E3        30.18R
6HR MIN TEMP:  39; 6HR MAX TEMP:  55;

MTN HOME       CLEAR     41  33  73 E7        30.17R
6HR MIN TEMP:  39; 6HR MAX TEMP:  53;

$$

ARZ040-041-280700-
WEST CENTRAL ARKANSAS

CITY           SKY/WX    TMP DP  RH WIND       PRES   REMARKS
MENA           CLEAR     41  36  81 CALM      30.15S
MOUNT IDA      CLEAR     40  34  79 CALM      30.13R
6HR MIN TEMP:  40; 6HR MAX TEMP:  61;

$$

ARZ009-017-025-026-028-280700-
NORTHEAST ARKANSAS

CITY           SKY/WX    TMP DP  RH WIND       PRES   REMARKS
CORNING        FAIR      36  32  87 E5        30.25R
JONESBORO      CLEAR     36  33  89 NE7       30.23R
6HR MIN TEMP:  36; 6HR MAX TEMP:  46;

NEWPORT        CLEAR     38  35  89 CALM      30.25R
6HR MIN TEMP:  38; 6HR MAX TEMP:  48;

WALNUT RIDGE   CLEAR     37  30  75 NE6       30.24R
6HR MIN TEMP:  37; 6HR MAX TEMP:  46;

BLYTHEVILLE    CLEAR     32  29  88 E9        30.24S WCI  24
6HR MIN TEMP:  31; 6HR MAX TEMP:  42;

$$

ARZ022-023-033-042-044-280700-
CENTRAL ARKANSAS

CITY           SKY/WX    TMP DP  RH WIND       PRES   REMARKS
LITTLE ROCK    CLEAR     42  34  73 E6        30.19S
6HR MIN TEMP:  42; 6HR MAX TEMP:  57;

N LITTLE ROCK  CLEAR     45  39  78 SE6       30.19S
6HR MIN TEMP:  45; 6HR MAX TEMP:  56;

JACKSONVILLE   CLEAR     39  34  81 E2        30.19R
6HR MIN TEMP:  38; 6HR MAX TEMP:  57;

SEARCY         CLEAR     37  35  92 NE5       30.23R
6HR MIN TEMP:  36; 6HR MAX TEMP:  52;

HOT SPRINGS    CLEAR     47  36  65 E7        30.17S
6HR MIN TEMP:  47; 6HR MAX TEMP:  61;

RUSSELLVILLE   CLEAR     50  36  58 VRB6      30.16R
6HR MIN TEMP:  41; 6HR MAX TEMP:  54;

CLINTON        FAIR      32  32 100 CALM      30.22R
$$

ARZ036-280700-
EAST ARKANSAS

CITY           SKY/WX    TMP DP  RH WIND       PRES   REMARKS
WEST MEMPHIS   FOG       36  32  85 CALM      30.22R VSB 1
6HR MIN TEMP:  36; 6HR MAX TEMP:  46;

$$

ARZ050-053-066-070-073-280700-
SOUTHWEST ARKANSAS

CITY           SKY/WX    TMP DP  RH WIND       PRES   REMARKS
ARKADELPHIA    FAIR      42  40  93 N3        30.18S
6HR MIN TEMP:  41; 6HR MAX TEMP:  58;

CAMDEN         CLEAR     41  36  81 CALM      30.17S
TEXARKANA      CLEAR     52  36  54 SW3       30.14R
6HR MIN TEMP:  50; 6HR MAX TEMP:  65;

EL DORADO      CLEAR     44  38  79 CALM      30.17S
6HR MIN TEMP:  40; 6HR MAX TEMP:  56;

DE QUEEN       CLEAR     40  37  89 CALM      30.13R
6HR MIN TEMP:  39; 6HR MAX TEMP:  64;

$$

ARZ056-057-069-280700-
SOUTHEAST ARKANSAS

CITY           SKY/WX    TMP DP  RH WIND       PRES   REMARKS
PINE BLUFF     CLEAR     42  36  79 E9        30.19S
6HR MIN TEMP:  42; 6HR MAX TEMP:  54;

STUTTGART      CLEAR     43  36  75 E6        30.20S
6HR MIN TEMP:  43; 6HR MAX TEMP:  55;

MONTICELLO     CLEAR     45  36  70 E5        30.19R
6HR MIN TEMP:  42; 6HR MAX TEMP:  57; 6HR PCP: TRACE;


$$





USA.gov is the U.S. government's official web portal to all federal, state and local government web resources and services.